{"data":{"norad_id":55348,"epoch":"2026-05-24T15:44:30.101280Z","epoch_age_seconds":107859,"freshness":"FRESH","line1":"1 55348U 23013T   26144.65590395  .00000234  00000+0  18025-4 0  9991","line2":"2 55348  43.0025 234.1993 0001487 268.7568  91.3113 15.27577220183293","mean_motion":15.2757722,"eccentricity":0.0001487,"inclination_deg":43.0025,"raan_deg":234.1993,"arg_perigee_deg":268.7568,"mean_anomaly_deg":91.3113,"bstar":1.8025e-5,"rev_number":18329,"period_min":94.266920267376,"perigee_km":482.03716076207,"apogee_km":484.07767998269,"semimajor_km":6861.1944203724,"source":"CELESTRAK","updated_at":"2026-05-25T13:38:17.763065Z"}}